Change the Weather History Date:

Wednesday, January 2, 2013

  Actual Average Record
Temperature  
Mean Temperature -0 °F -  
Max Temperature 14 °F 25 °F 39 °F (2002)
Min Temperature -15 °F 11 °F -32 °F (2009)
Degree Days  
Heating Degree Days 66    
Moisture  
Dew Point -7 °F    
Average Humidity 83    
Maximum Humidity 100    
Minimum Humidity 62    
Precipitation  
Precipitation 0.00 in 0.03 in - ()
Sea Level Pressure  
Sea Level Pressure 30.29 in    
Wind  
Wind Speed 2 mph ()    
Max Wind Speed 5 mph    
Max Gust Speed -    
Visibility 3.4 miles    
Events      
Averages and records for this station are not official NWS values.
T = Trace of Precipitation, MM = Missing Value Source: Averaged Metar Reports

Daily Weather History Graph

Daily Weather History Graph

Search for Another Location

Airport or City:

Trip Planner

Search our weather history database for the weather conditions in past years. The results will help you decide how hot, cold, wet, or windy it might be!

Date:

Astronomy

Jan. 02, 2013 Rise Set
Actual Time 6:37 AM EET 4:01 PM EET
Civil Twilight 6:06 AM EET 4:32 PM EET
Nautical Twilight 5:32 AM EET 5:06 PM EET
Astronomical Twilight 5:00 AM EET 5:38 PM EET
Moon 9:11 PM EET (1/2) 9:08 AM EET (1/2)
Length of Visible Light 10h 25m
Length of Day
9h 24m
Waning Gibbous, 78% of the Moon is Illuminated
Jan 2
Waning Gibbous
Jan 5
Last Quarter
Jan 11
New
Jan 19
First Quarter
Jan 27
Full

Hourly Weather History & Observations

Time (EET) Temp. Windchill Dew Point Humidity Pressure Visibility Wind Dir Wind Speed Gust Speed Precip Events Conditions
12:20 AM -11.2 °F - -13.0 °F 92% 30.21 in 3.7 mi Variable 2.3 mph - N/A   Unknown
12:50 AM -7.6 °F - -9.4 °F 92% 30.24 in 4.3 mi Calm Calm - N/A   Unknown
1:20 AM -11.2 °F - -14.8 °F 84% 30.24 in 4.3 mi Variable 2.3 mph - N/A   Unknown
1:50 AM -9.4 °F -18.6 °F -13.0 °F 84% 30.24 in 4.3 mi West 3.5 mph - N/A   Unknown
2:00 AM -10 °F - -10 °F 100%  in 4 mi West 3.5 mph - -   Mist
2:20 AM -9.4 °F -18.6 °F -11.2 °F 92% 30.24 in 4.3 mi WSW 3.5 mph - N/A   Unknown
2:50 AM -11.2 °F - -13.0 °F 92% 30.24 in 4.3 mi SSW 2.3 mph - N/A   Unknown
3:20 AM -11.2 °F - -14.8 °F 84% 30.24 in 4.3 mi Variable 1.2 mph - N/A   Unknown
3:50 AM -13.0 °F - -16.6 °F 84% 30.24 in 4.3 mi Variable 2.3 mph - N/A   Unknown
4:20 AM -13.0 °F -22.7 °F -16.6 °F 84% 30.24 in 4.3 mi North 3.5 mph - N/A   Unknown
4:50 AM -11.2 °F - -13.0 °F 92% 30.24 in 4.3 mi Variable 2.3 mph - N/A   Unknown
5:20 AM -13.0 °F -22.7 °F -14.8 °F 92% 30.24 in 4.3 mi SE 3.5 mph - N/A   Unknown
5:50 AM -9.4 °F - -13.0 °F 84% 30.27 in 4.3 mi Variable 1.2 mph - N/A   Unknown
6:20 AM -11.2 °F -23.0 °F -14.8 °F 84% 30.27 in 3.7 mi West 4.6 mph - N/A   Unknown
6:50 AM -13.0 °F - -16.6 °F 84% 30.27 in 4.3 mi Variable 1.2 mph - N/A   Unknown
7:20 AM -13.0 °F - -16.6 °F 84% 30.27 in 3.7 mi Variable 1.2 mph - N/A   Unknown
7:50 AM -11.2 °F - -14.8 °F 84% 30.30 in 3.7 mi Variable 1.2 mph - N/A   Unknown
8:00 AM -11 °F - -11 °F 100%  in 4 mi ESE 1.2 mph - -   Mist
8:20 AM -7.6 °F - -11.2 °F 84% 30.30 in 3.7 mi Variable 2.3 mph - N/A   Unknown
8:50 AM -7.6 °F - -11.2 °F 84% 30.30 in 3.7 mi Variable 2.3 mph - N/A   Unknown
9:20 AM -4.0 °F - -9.4 °F 78% 30.30 in 1.1 mi Variable 2.3 mph - N/A   Mist
9:50 AM 1.4 °F - -4.0 °F 78% 30.30 in 1.6 mi Variable 1.2 mph - N/A   Mist
10:20 AM 3.2 °F -6.2 °F -4.0 °F 72% 30.30 in 1.5 mi WNW 4.6 mph - N/A   Mist
10:50 AM 8.6 °F - 5.0 °F 85% 30.30 in 1.2 mi Calm Calm - N/A   Mist
11:20 AM 8.6 °F - 3.2 °F 79% 30.30 in 3.7 mi Variable 2.3 mph - N/A   Mist
11:50 AM 14.0 °F - 3.2 °F 62% 30.27 in 3.7 mi Calm Calm - N/A   Unknown
12:20 PM 10.4 °F 4.0 °F 3.2 °F 73% 30.27 in 3.7 mi NNE 3.5 mph - N/A   Unknown
12:50 PM 10.4 °F 4.0 °F 3.2 °F 73% 30.27 in 3.7 mi NNE 3.5 mph - N/A   Unknown
1:20 PM 10.4 °F - 3.2 °F 73% 30.27 in 3.7 mi Variable 2.3 mph - N/A   Unknown
1:50 PM 12.2 °F - 3.2 °F 67% 30.27 in 3.7 mi Variable 2.3 mph - N/A   Unknown
2:00 PM 11 °F - 6 °F 74%  in 4 mi East 2.3 mph - -   Mist
2:20 PM 12.2 °F - 3.2 °F 67% 30.30 in 3.7 mi ENE 1.2 mph - N/A   Unknown
2:50 PM 12.2 °F - 1.4 °F 62% 30.30 in 3.7 mi Variable 1.2 mph - N/A   Unknown
3:20 PM 12.2 °F - 1.4 °F 62% 30.30 in 3.7 mi Calm Calm - N/A   Unknown
3:50 PM 5.0 °F - -0.4 °F 78% 30.30 in 3.7 mi ESE 2.3 mph - N/A   Unknown
4:20 PM 1.4 °F - -4.0 °F 78% 30.30 in 3.7 mi East 2.3 mph - N/A   Unknown
4:50 PM 3.2 °F - -0.4 °F 85% 30.30 in 2.5 mi East 2.3 mph - N/A   Mist
5:20 PM 1.4 °F - -2.2 °F 85% 30.33 in 2.5 mi West 1.2 mph - N/A   Mist
5:50 PM -0.4 °F - -4.0 °F 85% 30.33 in 2.5 mi North 2.3 mph - N/A   Mist
6:20 PM -2.2 °F - -4.0 °F 92% 30.33 in 2.5 mi Calm Calm - N/A   Mist
6:50 PM -2.2 °F - -5.8 °F 85% 30.33 in - West 2.3 mph - N/A   Mist
7:20 PM -0.4 °F - -4.0 °F 85% 30.33 in 2.5 mi WSW 1.2 mph - N/A   Mist
7:50 PM -4.0 °F - -5.8 °F 92% 30.33 in 2.5 mi West 1.2 mph - N/A   Mist
8:00 PM -4 °F - -4 °F 97%  in 2 mi West 1.2 mph - -   Mist
8:20 PM -4.0 °F - -7.6 °F 85% 30.33 in 2.5 mi WNW 2.3 mph - N/A   Mist
8:50 PM -5.8 °F - -9.4 °F 84% 30.33 in 2.5 mi Calm Calm - N/A   Mist
9:20 PM -7.6 °F - -9.4 °F 92% 30.33 in 2.5 mi Calm Calm - N/A   Mist
9:50 PM -5.8 °F - -7.6 °F 92% 30.36 in 2.5 mi Calm Calm - N/A   Mist
10:20 PM -5.8 °F - -7.6 °F 92% 30.36 in 2.5 mi SW 2.3 mph - N/A   Mist
10:50 PM -5.8 °F - -7.6 °F 92% 30.36 in - Variable 2.3 mph - N/A   Mist
11:20 PM -9.4 °F - -13.0 °F 84% 30.36 in - Calm Calm - N/A   Mist
11:50 PM -9.4 °F - -13.0 °F 84% 30.36 in - Calm Calm - N/A   Mist